Regional Weather Roundup
Issued by NWS Sioux Falls, SD

Home | Current Version | Previous Version | Text Only | Print | Product List | Glossary On
Versions: 1 2 3 4 5 6 7 8 9 10 11 12 13 14 15 16 17 18 19 20 21 22 23 24 25 26 27 28 29 30 31 32 33 34 35 36 37 38 39 40 41 42 43 44 45 46 47 48 49 50
374
ASUS43 KFSD 251210
RWRFSD

WEATHER ROUNDUP FOR SE SOUTH DAKOTA/SW MINNESOTA/NW IOWA
NATIONAL WEATHER SERVICE SIOUX FALLS SD
600 AM CST SAT FEB 25 2017

NOTE: "FAIR" INDICATES FEW OR NO CLOUDS BELOW 12,000 FEET WITH NO
SIGNIFICANT WEATHER AND OR OBSTRUCTIONS TO VISIBILITY.


SDZ038>040-050-052>070-251300-
SOUTHEAST SOUTH DAKOTA

CITY           SKY/WX    TMP DP  RH WIND       PRES   REMARKS
BROOKINGS      CLEAR     12   9  87 CALM      30.00F
CHAMBERLAIN    CLOUDY    21  18  86 SW5       30.05S WCI  15
6HR MIN TEMP:  18; 6HR MAX TEMP:  23;

HURON          CLOUDY    18  15  88 SW3       30.05F
6HR MIN TEMP:  13; 6HR MAX TEMP:  18;

MADISON        FAIR      14  14 100 W6        30.01F WCI   5
MITCHELL       CLOUDY    20  15  81 SW6       30.07S WCI  12
6HR MIN TEMP:  17; 6HR MAX TEMP:  21;

SIOUX FALLS    CLEAR     13  11  92 W9        30.04S WCI   1
6HR MIN TEMP:  13; 6HR MAX TEMP:  19;

WINNER         CLOUDY    17  10  74 S10       30.02F WCI   5
YANKTON        CLOUDY    12   7  79 W7        30.09S WCI   2
$$

MNZ071-072-080-081-089-090-097-098-251300-
SOUTHWEST MINNESOTA

CITY           SKY/WX    TMP DP  RH WIND       PRES   REMARKS
FAIRMONT       CLEAR     13   7  77 NW18      29.97R WCI  -4
JACKSON        PTCLDY    14   9  79 NW15      29.98S WCI  -1
LUVERNE        CLEAR     14  10  85 NW7       30.03R WCI   4
MARSHALL       CLEAR     15  10  80 NW10      30.02S WCI   2
6HR MIN TEMP:  15; 6HR MAX TEMP:  18;

MONTEVIDEO     CLEAR     16  10  79 N7        30.03S WCI   6
PIPESTONE      CLEAR     16  10  79 NW7       29.99F WCI   6
REDWOOD FALLS  CLEAR     17   8  67 NW15G21   29.99F WCI   2
TRACY          CLEAR     17  13  82 NW10G16   30.00S WCI   5
WINDOM         CLEAR     16   9  73 NW13      29.98R WCI   2
WORTHINGTON    CLEAR     13   8  81 NW12      30.00R WCI  -1
$$

IAZ001>003-012>014-020>022-031-032-NEZ013-014-SDZ071-251300-
NORTHWEST IOWA

CITY           SKY/WX    TMP DP  RH WIND       PRES   REMARKS
CHEROKEE       CLEAR     13  11  90 NW7       30.05R WCI   3
DENISON        CLEAR     16  12  86 NW10      30.04R WCI   3
ESTHERVILLE    CLEAR     12   6  77 NW16      29.98R WCI  -5
LE MARS        PTCLDY    12  10  92 NW3       30.08S
SHELDON        CLEAR     14  14 100 W8        30.02R WCI   3
SIOUX CITY     CLOUDY    13  10  88 NW8       30.10R WCI   2
6HR MIN TEMP:  13; 6HR MAX TEMP:  21;

SPENCER        CLEAR     10   6  84 NW10      30.01R WCI  -4
6HR MIN TEMP:  10; 6HR MAX TEMP:  18;

STORM LAKE     CLEAR     14  10  85 NW16      30.02R WCI  -2
$$

ABBREVIATIONS USED IN REMARKS
   TC - TEMPERATURE IN CELSIUS
  WCI - WIND CHILL INDEX
   HX - HEAT INDEX
  VSB - VISIBILITY





USA.gov is the U.S. government's official web portal to all federal, state and local government web resources and services.